Regional Weather Roundup
Issued by NWS

Home | Current Version | Previous Version | Graphics & Text | Print | Product List | Glossary On
Versions: 1 2 3 4 5 6 7 8 9 10 11 12 13 14 15 16 17 18 19 20 21 22 23 24 25 26 27 28 29 30 31 32 33 34 35 36 37 38 39 40 41 42 43 44 45 46 47 48 49 50
000
ASUS43 KBIS 230010
RWRND

NORTH DAKOTA REGIONAL WEATHER ROUNDUP
NATIONAL WEATHER SERVICE BISMARCK ND
700 PM CDT MON MAY 22 2017

NOTE: "FAIR" INDICATES FEW OR NO CLOUDS BELOW 12,000 FEET WITH NO
SIGNIFICANT WEATHER AND/OR OBSTRUCTIONS TO VISIBILITY.


NDZ001>003-009>011-017-230100-
NORTHWEST NORTH DAKOTA

CITY           SKY/WX    TMP DP  RH WIND       PRES   REMARKS
WILLISTON      CLOUDY    66  33  29 N13       30.06S
6HR MIN TEMP:  58; 6HR MAX TEMP:  70; 6HR PCP: TRACE;

MINOT          CLOUDY    62  34  35 N17G25    29.98R
MINOT AFB      CLOUDY    62  33  34 NE22G29   29.98R
$$

NDZ018>021-031>035-040>046-230100-
SOUTHWEST NORTH DAKOTA

CITY           SKY/WX    TMP DP  RH WIND       PRES   REMARKS
BISMARCK       LGT RAIN  59  41  51 NW12G23   29.99S
6HR MIN TEMP:  57; 6HR MAX TEMP:  64; 6HR PCP: TRACE;

DICKINSON      CLOUDY    58  32  37 N15G26    30.03S
GARRISON         N/A     60  36  40 NW12      29.98S
6HR MIN TEMP:  54; 6HR MAX TEMP:  63;

HETTINGER ARPT CLOUDY    57  34  41 N16G24    30.07R
$$

NDZ004>008-012>016-024-026-027-054-230100-
NORTHEAST NORTH DAKOTA

CITY           SKY/WX    TMP DP  RH WIND       PRES   REMARKS
GRAND FORKS    CLOUDY    52  48  86 N17       29.88R
GRND FRKS AFB  CLOUDY    50  47  87 N17G23    29.89R
DEVILS LAKE    LGT RAIN  49  45  86 N13       29.96R
$$

NDZ022-023-025-028>030-036>039-047>053-230100-
SOUTHEAST NORTH DAKOTA

CITY           SKY/WX    TMP DP  RH WIND       PRES   REMARKS
FARGO          LGT RAIN  52  44  74 N15       29.87F
6HR MIN TEMP:  50; 6HR MAX TEMP:  61; 6HR PCP: TRACE;

JAMESTOWN      LGT RAIN  50  45  83 NW9       29.93R
$$




USA.gov is the U.S. government's official web portal to all federal, state and local government web resources and services.